Regional Weather Roundup
Issued by NWS Northern Indiana

Home | Current Version | Previous Version | Text Only | Print | Product List | Glossary Off
Versions: 1 2 3 4 5 6 7 8 9 10 11 12 13 14 15 16 17 18 19 20 21 22 23 24 25 26 27 28 29 30 31 32 33 34 35 36 37 38 39 40 41 42 43 44 45 46 47 48 49 50

000
ASUS43 KIWX 040000
RWRIWX

KIWX WEATHER ROUNDUP
NATIONAL WEATHER SERVICE NORTHERN INDIANA
800 PM EDT SUN MAY 03 2015

NOTE: "FAIR" INDICATES FEW OR NO CLOUDS BELOW 12,000 FEET WITH NO
SIGNIFICANT WEATHER AND/OR OBSTRUCTIONS TO VISIBILITY.

* THESE STATIONS ARE NOT UNDER NWS QUALITY CONTROL. THEY ALSO MAY NOT
  REPORT WEATHER SUCH AS PRECIPITATION OR FOG.

INZ001>027-040100-
NORTHERN INDIANA

CITY           SKY/WX    TMP DP  RH WIND       PRES   REMARKS
GARY*          MOCLDY    79 N/A N/A S8        29.93S
SOUTH BEND     CLOUDY    76  43  30 S9        29.97S
6HR MIN TEMP:  76; 6HR MAX TEMP:  81;

GOSHEN         MOCLDY    74  46  36 S8        29.99R
6HR MIN TEMP:  74; 6HR MAX TEMP:  78;

ANGOLA*        PTCLDY    75  70  83 SW6       30.00S
FORT WAYNE     MOCLDY    71  49  45 S9        30.03R
6HR MIN TEMP:  71; 6HR MAX TEMP:  78;

PERU/GRISSOM   PTCLDY    71  48  44 S8        30.00R
6HR MIN TEMP:  71; 6HR MAX TEMP:  78;


$$
INZ028>050-040100-
CENTRAL INDIANA

CITY           SKY/WX    TMP DP  RH WIND       PRES   REMARKS
LAFAYETTE      MOCLDY    74  43  32 S7        29.98S
6HR MIN TEMP:  74; 6HR MAX TEMP:  78;

MUNCIE*        CLEAR     75  46  35 S12       30.03R
6HR MIN TEMP:  74; 6HR MAX TEMP:  78;

INDIANAPOLIS   MOCLDY    73  45  36 S10       30.01S
6HR MIN TEMP:  73; 6HR MAX TEMP:  78;


$$
MIZ043>046-050>051-056>058-064>065-071>073-077>080-040100-
SOUTHWEST LOWER MICHIGAN

CITY           SKY/WX    TMP DP  RH WIND       PRES   REMARKS
BATTLE CREEK   CLOUDY    74  47  38 S10       29.99R
6HR MIN TEMP:  74; 6HR MAX TEMP:  79;

BENTON HARBOR  CLOUDY    75  44  33 S9        29.94S
6HR MIN TEMP:  71; 6HR MAX TEMP:  78;

COLDWATER*     PTCLDY    73  43  33 SW10G16   29.99S
6HR MIN TEMP:  73; 6HR MAX TEMP:  77;

HILLSDALE*     PTCLDY    74  44  35 SW8       30.01F
6HR MIN TEMP:  74; 6HR MAX TEMP:  79;

HOLLAND        CLOUDY    74  46  36 S6        29.94F
6HR MIN TEMP:  74; 6HR MAX TEMP:  78;

GRAND RAPIDS   MOCLDY    73  48  41 S6        29.94F
6HR MIN TEMP:  73; 6HR MAX TEMP:  79;

KALAMAZOO      MOCLDY    73  45  36 S8        29.97S
6HR MIN TEMP:  73; 6HR MAX TEMP:  80;

STURGIS*       CLEAR     72  46  40 S9        29.99R
THREE RIVERS*  FAIR      72  45  37 S8        29.98S
6HR MIN TEMP:  72; 6HR MAX TEMP:  78;


$$
OHZ001>008-015>018-024>025-040100-
NORTHWEST OHIO

CITY           SKY/WX    TMP DP  RH WIND       PRES   REMARKS
DEFIANCE       PTCLDY    75  45  34 SW7       30.02R
6HR MIN TEMP:  75; 6HR MAX TEMP:  79;

FINDLAY        PTCLDY    73  47  39 SW7       30.03S
6HR MIN TEMP:  73; 6HR MAX TEMP:  79;

TOLEDO EXPRESS MOCLDY    75  42  30 SW8       30.02R
6HR MIN TEMP:  75; 6HR MAX TEMP:  79;

TOLEDO METCALF MOCLDY    75  45  34 SW7       30.03R
6HR MIN TEMP:  75; 6HR MAX TEMP:  79;

LIMA           PTCLDY    73  46  38 S7        30.05R
6HR MIN TEMP:  73; 6HR MAX TEMP:  77;


$$
AND FOR LAKE MICHIGAN COASTAL AND OPEN LAKE BUOY OBSERVATIONS

STATION/POSITION TEMP    WIND        PRES    VSBY  WAVE
                 AIR SEA DIR/SP/G                  HT/PER
                 (F)     (DEG/KT/KT) (MB)    (MI)  (FT/S)
CALUMET HARBOR    78     180/ 10/ 12   N/A
MICHIGAN CITY     78     160/  9/ 13   N/A
BURNS HARBOR      75     200/ 13/ 17 1013.9F
SAINT JOSEPH      70     180/  5/ 11 1014.6R
4 MI NW BRIDGMAN  64 50  210/  8/ 10   N/A           1/ 3
MICHIGAN CITY     65 51  210/  8/ 10   N/A           1

$$
&&


USA.gov is the U.S. government's official web portal to all federal, state and local government web resources and services.